Content
SEND FEEDBACK

Daily
Averages
Monthly
Summary
United States of America

MERCIER, KANSAS


Home > North America > United States > Kansas
Elevation: 1090 feet     Latitude: 39 44N     Longitude: 095 36W

WEATHER
 
SELECT A DAY
Number of Records: 168,241;   Date Range: 1/1/95 - 7/7/14
 
SHARE

PRINT THIS DATA

[ ← Previous Day ]
WEATHER ALMANAC - FEBRUARY 13, 2013
[ Next Day → ]
[ °C ]   °F
Weather ElementAverageHighLow
Temperature39.3 °F55.9 °F (1:53 pm)24.1 °F (5:53 am)
Dewpoint23.4 °F27 °F (10:53 am)19 °F (3:53 am)
Humidity56.3 %81 % (5:53 am)31 % (2:53 pm)
Barometer29.85 in29.92 in (2:53 am)29.78 in (4:53 pm)
Wind Speed8.2 mph12.7 mph (9:53 am)
Wind Gust18.4 mph (12:53 pm)
Weather ElementAverage
Visibility10 mi
Wind DirectionWSW (258.7 °)

Weather ElementTotal
Precipitation---
Heating Degree Days25 (Base 65)
Averaged from 23 records on February 13, 2013
WEATHER CONDITIONS BREAKOUT
WIND DIRECTION BREAKOUT
WEATHER BY HOUR - FEBRUARY 13, 2013
[ °C ]   °F
Local TimeTemperatureDewpointHumidityBarometerVisibilityWind DirectionWind SpeedGust SpeedPrecipitationEventsConditions
1:53 AM24.8 °F19.4 °F80 %29.91 in10.0 miWest (280°)5.8 mphClear
2:53 AM26.1 °F19.9 °F78 %29.92 in10.0 miWNW (290°)6.9 mphClear
3:53 AM25.0 °F19.0 °F78 %29.91 in10.0 miWest (280°)6.9 mphClear
4:53 AM27.0 °F19.9 °F75 %29.90 in10.0 miWest (270°)9.2 mphClear
5:53 AM24.1 °F19.0 °F81 %29.90 in10.0 miWest (280°)8.1 mphClear
6:53 AM24.1 °F19.0 °F81 %29.89 in10.0 miCalmClear
7:53 AM28.4 °F21.2 °F74 %29.88 in10.0 miWest (280°)10.4 mphClear
8:53 AM33.1 °F24.1 °F70 %29.90 in10.0 miWNW (290°)10.4 mphClear
9:53 AM37.9 °F26.1 °F62 %29.90 in10.0 miWNW (290°)12.7 mphClear
10:53 AM42.1 °F27.0 °F55 %29.89 in10.0 miWNW (300°)8.1 mphClear
11:53 AM48.9 °F27.0 °F43 %29.87 in10.0 miWest (280°)9.2 mphClear
12:53 PM53.1 °F25.0 °F34 %29.83 in10.0 miWest (270°)5.8 mph18.4 mphClear
1:53 PM55.9 °F26.1 °F32 %29.81 in10.0 miWest (280°)9.2 mphClear
2:53 PM55.0 °F25.0 °F31 %29.79 in10.0 miWSW (240°)8.1 mphClear
3:53 PM55.0 °F25.0 °F31 %29.79 in10.0 miWest (280°)11.5 mphClear
4:53 PM53.1 °F24.1 °F32 %29.78 in10.0 miWest (260°)11.5 mphClear
5:53 PM48.0 °F24.1 °F39 %29.79 in10.0 miWest (260°)8.1 mphClear
6:53 PM45.0 °F24.1 °F44 %29.79 in10.0 miSW (230°)5.8 mphClear
7:53 PM42.1 °F23.0 °F47 %29.80 in10.0 miSW (230°)9.2 mphClear
8:53 PM42.1 °F24.1 °F49 %29.79 in10.0 miSW (230°)9.2 mphPartly Cloudy
9:53 PM41.0 °F25.0 °F53 %29.79 in10.0 miWest (260°)10.4 mphClear
10:53 PM37.0 °F25.0 °F62 %29.81 in10.0 miWest (280°)5.8 mphClear
11:53 PM36.0 °F25.0 °F64 %29.81 in10.0 miWNW (290°)6.9 mphClear
Hourly data recorded from KFNB, located miles away from Mercier, Kansas







STORIES FROM OUR PARTNERS